This is the latest recevied weather packets stored in our database for station/object EB1BWO-10. If no packets are shown the sender has not sent any weather packets the latest 10 day(s).
| Time | Temp. | Humidity | Pressure | Rain* | Wind** | Luminosity | Snow |
|---|---|---|---|---|---|---|---|
| 1778063280 | 13.33° C | 77% | 949.6 hPa | - | - | - | - |
| 1778062380 | 13.33° C | 74% | 949.6 hPa | - | - | - | - |
| 1778061480 | 12.78° C | 76% | 949.6 hPa | - | - | - | - |
| 1778060580 | 12.78° C | 75% | 949.6 hPa | - | - | - | - |
| 1778059680 | 12.78° C | 72% | 949.4 hPa | - | - | - | - |
| 1778058780 | 12.22° C | 81% | 949.3 hPa | - | - | - | - |
| 1778057880 | 12.22° C | 78% | 948.6 hPa | - | - | - | - |
| 1778056980 | 11.67° C | 76% | 949.3 hPa | - | - | - | - |
| 1778054280 | 11.67° C | 80% | 949.2 hPa | - | - | - | - |
| 1778053380 | 10.56° C | 79% | 949.2 hPa | - | - | - | - |
| 1778052480 | 10° C | 77% | 949.3 hPa | - | - | - | - |
| 1778051579 | 10° C | 79% | 949.1 hPa | - | - | - | - |
| 1778049780 | 8.89° C | 82% | 948.9 hPa | - | - | - | - |
| 1778048880 | 8.89° C | 82% | 948.8 hPa | - | - | - | - |
| 1778047980 | 8.89° C | 82% | 948.9 hPa | - | - | - | - |
| 1778047080 | 8.89° C | 80% | 948.8 hPa | - | - | - | - |
| 1778046180 | 8.33° C | 81% | 948.7 hPa | - | - | - | - |
| 1778045280 | 8.33° C | 82% | 948.6 hPa | - | - | - | - |
| 1778044380 | 8.33° C | 80% | 948.5 hPa | - | - | - | - |
| 1778043480 | 8.33° C | 79% | 948.5 hPa | - | - | - | - |
| 1778042580 | 8.33° C | 81% | 948.6 hPa | - | - | - | - |
| 1778041680 | 8.33° C | 80% | 948.6 hPa | - | - | - | - |
| 1778040780 | 8.33° C | 80% | 948.5 hPa | - | - | - | - |
| 1778039879 | 8.33° C | 79% | 948.6 hPa | - | - | - | - |
| 1778038979 | 8.33° C | 79% | 948.7 hPa | - | - | - | - |
* Rain since midnight (hover to see other rain measurements)
** Current wind speed in m/s (hover to see current wind gust speed)